weather.gov     
National Weather Service

Regional Weather Roundup
NWS Homepage
This page is being discontinued on March 12, 2014.
The same data is available at this site. Please update your bookmarks.
Thank you, and we apologize for the inconvenience.
Please send an email to SR-SRH.Webmaster@noaa.gov with any concerns.


Current Version
Previous Version:    01  02  03  04  05  06  07  08  09  10  11  12  13  14  15  16  17  18  19  20  21  22  23  24  25  26  27  
[Printable]
163
ASUS45 KGGW 250515
RWRGGW
HOURLY WEATHER ROUNDUP FOR NORTHEAST MONTANA
NATIONAL WEATHER SERVICE GLASGOW MONTANA
1100 PM MDT THU JUL 24 2014

NOTE: "FAIR" INDICATES FEW OR NO CLOUDS BELOW 12,000 FEET WITH NO
SIGNIFICANT WEATHER AND/OR OBSTRUCTIONS TO VISISBILITY.

NORTHEAST MONTANA


CITY           SKY/WX    TMP DP  RH WIND       PRES   REMARKS
GLASGOW        CLEAR     63  39  41 N3        29.86R
PLENTYWOOD       N/A     56  52  86 W2          N/A
WOLF POINT     CLEAR     58  53  84 CALM      29.86R
JORDAN           N/A     59  41  51 NE3       29.90R
WINNETT          N/A     65  29  25 NW9         N/A
SIDNEY         MOCLDY    64  54  68 NW8       29.85R
GLENDIVE       PTCLDY    64  48  55 N16       29.87S
MALTA            N/A     61  39  44 W3          N/A
SCOBEY           N/A     53  46  77 CALM      29.84S

FORT PECK REPORTS


CITY           SKY/WX    TMP DP  RH WIND       PRES   REMARKS
FORT PECK        N/A     67  43  41 NE7         N/A
THE PINES        N/A     66  35  31 N5          N/A

SOUTHEAST MONTANA


CITY           SKY/WX    TMP DP  RH WIND       PRES   REMARKS
BILLINGS       CLEAR     73  35  25 N12       29.94R
MILES CITY     CLEAR     65  48  54 NE8       29.90R
BAKER          CLEAR     64  49  57 NW13      29.88R
LIVINGSTON     CLEAR     64  29  26 NW10      30.02R

CENTRAL MONTANA


CITY           SKY/WX    TMP DP  RH WIND       PRES   REMARKS
HAVRE          CLEAR     63  35  35 W17G33    29.86S
LEWISTOWN      CLEAR     60  32  34 NW9       29.98R
GREAT FALLS    CLEAR     58  33  39 W12       29.98R
CUT BANK       PTCLDY    55  36  48 W26G33    29.93R
HELENA         CLEAR     62  35  36 SW10      30.06R
BUTTE          CLEAR     56  32  40 NW3       30.15R
BOZEMAN        CLEAR     52  35  52 NW10      30.05R

WESTERN MONTANA


CITY           SKY/WX    TMP DP  RH WIND       PRES   REMARKS
MISSOULA       CLEAR     55  38  52 NW5       30.14R
KALISPELL      NOT AVBL

NORTH DAKOTA


CITY           SKY/WX    TMP DP  RH WIND       PRES   REMARKS
WILLISTON      MOCLDY    64  60  87 NW10      29.80R
DICKINSON      MOCLDY    69  67  93 NW15      29.76R
MINOT          CLOUDY    69  66  90 E7        29.74R
BISMARCK       LGT RAIN  71  65  81 SE5       29.73R

SOUTHERN SASKATCHEWAN


CITY           SKY/WX    TMP DP  RH WIND       PRES   REMARKS
REGINA         MOCLDY    59  57  94 SW10      29.77S
ESTEVAN        CLOUDY   N/A N/A N/A W9          N/A
SWIFT CURRENT  CLEAR     54  43  66 SW14G21   29.74S





U.S. Dept. of Commerce
NOAA National Weather Service
1325 East West Highway
Silver Spring, MD 20910
E-mail: w-nws.webmaster@noaa.gov
Page last modified: May 16, 2007
NATIONAL WEATHER SERVICE: for Safety, for Work, for Fun - FOR LIFE